User: anonymous   Login
Location: Fort Wayne
(41.1310°N, 85.1290°W)
Time: 18:59:57
(UTC-05:00)
Language:

Cosmos 1000 Rocket - Orbit

View from above orbital plane
View from above orbital plane
View from above satellite
View from above satellite

Ground track
Ground track

The orbit data is extracted from the following two-line orbital elements,

1 10777U 78034B   17323.54136435 -.00000052  00000-0 -68374-4 0  9992
2 10777  82.9404 115.0357 0027157 121.7565 304.7739 13.77391727991775
Epoch (UTC): 19 November 2017 12:59:33
Eccentricity: 0.0027157
inclination: 82.9404°
perigee height: 953 km
apogee height: 993 km
right ascension of ascending node: 115.0357°
argument of perigee: 121.7565°
revolutions per day: 13.77391727
mean anomaly at epoch: 304.7739°
orbit number at epoch: 99177

The dashed part of the orbit path shows where the satellite is in the earth's shadow,  

DLR